CW0927 Weather Reports


Display with metric or nautical units.
time (UTC)temp
F
wind
direction
speed
MPH
gust
MPH
rain 1hr
in
rain 24hr
in
rain mn
in
humidity
%
barometer
mb
20260509165835 91 252 5.0 9.0 0.00 0.53 0.01 57 1014.5
20260509165337 90 248 3.0 10.0 0.00 0.53 0.01 59 1014.6
20260509164907 90 188 3.0 10.0 0.00 0.53 0.01 58 1014.6
20260509164346 90 259 3.0 10.0 0.00 0.53 0.01 60 1014.6
20260509163845 90 257 3.0 10.0 0.00 0.53 0.01 59 1014.7
20260509163344 89 254 2.0 8.0 0.00 0.53 0.01 60 1014.7
20260509162846 89 252 3.0 8.0 0.00 0.53 0.01 61 1014.7
20260509162342 89 232 1.0 5.0 0.00 0.53 0.01 61 1014.7
20260509161844 88 244 1.0 10.0 0.00 0.53 0.01 60 1014.8
20260509161346 88 246 4.0 10.0 0.00 0.53 0.01 59 1014.9
20260509160826 88 196 2.0 10.0 0.00 0.53 0.01 62 1014.9
20260509160326 88 261 3.0 10.0 0.00 0.53 0.01 62 1014.8
20260509155826 87 123 1.0 8.0 0.00 0.53 0.01 63 1015.0
20260509155325 87 260 2.0 10.0 0.00 0.53 0.01 65 1015.0
20260509154826 86 235 3.0 10.0 0.00 0.53 0.01 67 1015.1
20260509154355 86 268 2.0 10.0 0.00 0.53 0.01 69 1015.1
20260509153902 86 257 3.0 9.0 0.00 0.53 0.01 68 1015.2
20260509153406 85 243 2.0 9.0 0.00 0.53 0.01 69 1015.2
20260509152845 85 285 2.0 9.0 0.00 0.53 0.01 71 1015.3
20260509152342 85 300 2.0 7.0 0.00 0.53 0.01 71 1015.4
20260509151842 84 242 0.0 8.0 0.00 0.53 0.01 68 1015.4
20260509151342 84 267 2.0 8.0 0.00 0.53 0.01 69 1015.4
20260509150839 84 297 1.0 6.0 0.00 0.53 0.01 71 1015.6
20260509150408 84 207 1.0 8.0 0.00 0.53 0.01 70 1015.7
20260509145847 84 255 1.0 8.0 0.00 0.53 0.01 71 1015.6
20260509145325 84 239 1.0 4.0 0.00 0.53 0.01 72 1015.6
20260509144345 83 255 2.0 8.0 0.00 0.53 0.01 72 1015.6
20260509143842 82 210 0.0 6.0 0.00 0.53 0.01 76 1015.5
20260509143342 82 240 1.0 6.0 0.00 0.53 0.01 77 1015.5
20260509142844 81 251 0.0 3.0 0.00 0.53 0.01 78 1015.3
20260509142324 81 215 1.0 7.0 0.00 0.53 0.01 78 1015.3
20260509141824 80 209 0.0 7.0 0.00 0.53 0.01 80 1015.3
20260509141333 80 123 2.0 6.0 0.00 0.53 0.01 80 1015.3
20260509140832 80 119 1.0 5.0 0.00 0.53 0.01 84 1015.3
20260509140332 79 129 2.0 5.0 0.00 0.53 0.01 84 1015.3
20260509135840 79 147 1.0 4.0 0.00 0.53 0.01 85 1015.3
20260509135340 79 206 1.0 7.0 0.00 0.53 0.01 87 1015.3
20260509134839 78 152 1.0 7.0 0.00 0.53 0.01 87 1015.3
20260509134336 78 247 1.0 2.0 0.00 0.53 0.01 87 1015.4
20260509133830 77 150 0.0 2.0 0.00 0.53 0.01 88 1015.4
20260509133330 77 153 0.0 2.0 0.00 0.53 0.01 89 1015.5
20260509132901 77 153 0.0 2.0 0.00 0.53 0.01 90 1015.4
20260509132340 76 150 0.0 2.0 0.00 0.53 0.01 90 1015.5
20260509131838 76 170 0.0 3.0 0.00 0.53 0.01 91 1015.4
20260509131338 76 206 1.0 3.0 0.00 0.53 0.01 91 1015.4
20260509130839 76 140 0.0 3.0 0.00 0.53 0.01 92 1015.3
20260509130338 75 173 0.0 4.0 0.00 0.53 0.01 93 1015.4
20260509125836 75 130 2.0 4.0 0.00 0.53 0.01 94 1015.3
20260509125404 74 201 0.0 2.0 0.00 0.53 0.01 95 1015.5
20260509124844 74 194 0.0 2.0 0.00 0.53 0.01 95 1015.5
20260509124341 74 189 0.0 2.0 0.00 0.53 0.01 95 1015.5
20260509123843 74 158 0.0 1.0 0.00 0.53 0.01 95 1015.5
20260509123344 74 158 0.0 0.0 0.00 0.53 0.01 96 1015.5
20260509122847 74 144 0.0 1.0 0.00 0.53 0.01 96 1015.4
20260509122347 73 90 0.0 1.0 0.00 0.53 0.01 96 1015.4
20260509121828 73 5 0.0 0.0 0.00 0.53 0.01 96 1015.5
20260509121329 73 5 0.0 0.0 0.00 0.53 0.01 96 1015.4
20260509120859 73 5 0.0 0.0 0.00 0.53 0.01 97 1015.4
20260509120340 73 5 0.0 0.0 0.00 0.53 0.01 97 1015.4
20260509115842 73 5 0.0 0.0 0.00 0.53 0.01 96 1015.3
20260509115343 73 5 0.0 0.0 0.00 0.53 0.01 96 1015.3
20260509114842 73 5 0.0 0.0 0.00 0.53 0.01 96 1015.2
20260509114324 72 5 0.0 1.0 0.00 0.53 0.01 96 1015.1
20260509113828 72 5 0.0 1.0 0.00 0.53 0.01 96 1015.0
20260509113330 72 5 0.0 0.0 0.00 0.53 0.01 96 1015.0
20260509112902 72 5 0.0 0.0 0.00 0.53 0.01 95 1015.0
20260509112337 72 5 0.0 0.0 0.00 0.53 0.01 95 1014.9
20260509111838 72 5 0.0 0.0 0.00 0.53 0.01 95 1014.9
20260509111338 72 5 0.0 1.0 0.00 0.53 0.01 95 1014.8
20260509110840 72 5 0.0 0.0 0.00 0.53 0.01 95 1014.8
20260509110343 72 5 0.0 0.0 0.00 0.53 0.01 95 1014.7
20260509105844 72 5 0.0 0.0 0.00 0.53 0.01 95 1014.7
20260509105324 72 5 0.0 0.0 0.00 0.53 0.01 95 1014.7
20260509104825 71 5 0.0 0.0 0.00 0.53 0.01 95 1014.7
20260509104327 71 5 0.0 0.0 0.00 0.53 0.01 95 1014.7
20260509103825 71 5 0.0 0.0 0.00 0.53 0.01 95 1014.7
20260509103329 71 5 0.0 0.0 0.00 0.53 0.01 95 1014.7
20260509102830 71 5 0.0 0.0 0.00 0.53 0.01 95 1014.6
20260509102333 71 5 0.0 0.0 0.00 0.53 0.01 95 1014.6
20260509101836 71 5 0.0 0.0 0.00 0.53 0.01 95 1014.6
20260509101339 71 5 0.0 0.0 0.00 0.53 0.01 95 1014.6
20260509100840 71 355 0.0 0.0 0.00 0.53 0.01 94 1014.6
20260509100339 71 355 0.0 0.0 0.00 0.53 0.01 94 1014.5
20260509095840 71 355 0.0 0.0 0.00 0.53 0.01 94 1014.5
20260509095406 71 355 0.0 0.0 0.00 0.53 0.01 94 1014.5
20260509094844 71 355 0.0 0.0 0.00 0.53 0.01 94 1014.4
20260509094345 71 355 0.0 0.0 0.00 0.53 0.01 94 1014.4
20260509093844 71 355 0.0 1.0 0.00 0.53 0.01 94 1014.4
20260509093348 71 355 0.0 1.0 0.00 0.53 0.01 94 1014.4
20260509092848 71 355 0.0 0.0 0.00 0.53 0.01 94 1014.4
20260509092349 71 355 0.0 0.0 0.00 0.53 0.01 94 1014.4
20260509091849 71 355 0.0 0.0 0.00 0.53 0.01 94 1014.3
20260509091358 71 355 0.0 0.0 0.00 0.53 0.01 94 1014.4
20260509090838 71 355 0.0 0.0 0.00 0.53 0.01 94 1014.5
20260509090341 71 355 0.0 0.0 0.00 0.53 0.01 94 1014.6
20260509085910 71 355 0.0 0.0 0.00 0.53 0.01 94 1014.6
20260509085325 71 355 0.0 0.0 0.00 0.53 0.01 94 1014.7
20260509084828 71 355 0.0 0.0 0.00 0.53 0.01 94 1014.7
20260509084327 71 355 0.0 0.0 0.00 0.53 0.01 94 1014.8
20260509083830 71 355 0.0 0.0 0.00 0.53 0.01 94 1014.8
20260509083402 71 355 0.0 0.0 0.00 0.53 0.01 94 1014.8
20260509082844 71 355 0.0 0.0 0.00 0.53 0.01 94 1014.8
20260509082340 71 355 0.0 0.0 0.00 0.53 0.01 94 1014.8
20260509081909 71 355 0.0 0.0 0.00 0.53 0.01 94 1014.8
20260509081330 71 355 0.0 0.0 0.00 0.53 0.01 94 1014.9
20260509080831 71 355 0.0 0.0 0.00 0.53 0.01 94 1014.8
20260509080405 71 355 0.0 0.0 0.00 0.53 0.01 93 1014.9
20260509075824 72 355 0.0 0.0 0.00 0.53 0.01 94 1014.8
20260509075324 72 355 0.0 0.0 0.00 0.53 0.01 94 1014.9
20260509074848 71 355 0.0 0.0 0.00 0.53 0.01 93 1014.9
20260509074350 71 355 0.0 0.0 0.00 0.53 0.01 93 1015.0
20260509073851 71 355 0.0 0.0 0.00 0.53 0.01 93 1015.0
20260509073333 71 355 0.0 0.0 0.00 0.53 0.01 93 1014.9
20260509072832 71 355 0.0 0.0 0.00 0.53 0.01 93 1014.9
20260509072334 71 355 0.0 0.0 0.00 0.53 0.01 93 1015.0
20260509071834 71 355 0.0 0.0 0.00 0.53 0.01 93 1015.1
20260509071335 71 355 0.0 0.0 0.00 0.53 0.01 93 1015.1
20260509070835 71 355 0.0 0.0 0.00 0.53 0.01 93 1015.2
20260509070337 71 355 0.0 0.0 0.00 0.53 0.01 93 1015.2
20260509065906 71 355 0.0 1.0 0.00 0.53 0.01 93 1015.3
20260509065327 71 355 0.0 1.0 0.01 0.53 0.01 93 1015.3
20260509064826 71 355 0.0 0.0 0.01 0.53 0.01 93 1015.3
20260509064327 71 355 0.0 0.0 0.01 0.53 0.01 93 1015.4
20260509063830 71 355 0.0 0.0 0.01 0.53 0.01 93 1015.3
20260509063329 71 355 0.0 0.0 0.01 0.53 0.01 93 1015.4
20260509062838 71 355 0.0 0.0 0.01 0.53 0.01 93 1015.4
20260509062404 71 355 0.0 0.0 0.01 0.53 0.01 93 1015.4
20260509061842 71 355 0.0 0.0 0.01 0.53 0.01 93 1015.4
20260509061324 71 355 0.0 0.0 0.01 0.53 0.01 93 1015.4
20260509060824 71 355 0.0 0.0 0.01 0.53 0.01 93 1015.4
20260509060325 72 355 0.0 0.0 0.01 0.53 0.01 93 1015.4
20260509055825 72 355 0.0 0.0 0.01 0.53 0.01 93 1015.4
20260509055326 72 355 0.0 0.0 0.00 0.52 0.00 93 1015.5
20260509054912 72 355 0.0 0.0 0.00 0.52 0.00 93 1015.5
20260509054352 72 355 0.0 0.0 0.00 0.52 0.00 93 1015.5
20260509053835 72 355 0.0 0.0 0.00 0.52 0.00 93 1015.5
20260509053343 72 355 0.0 1.0 0.00 0.52 0.00 92 1015.6
20260509052844 72 355 0.0 1.0 0.00 0.52 0.00 92 1015.7
20260509052343 72 355 0.0 0.0 0.00 0.52 0.00 92 1015.8
20260509051851 72 355 0.0 0.0 0.00 0.52 0.00 92 1015.9
20260509051330 72 355 0.0 0.0 0.00 0.52 0.00 93 1016.0
20260509050854 72 355 0.0 0.0 0.00 0.52 0.00 93 1016.1
20260509050333 72 355 0.0 0.0 0.00 0.52 0.00 93 1016.1
20260509045833 72 355 0.0 0.0 0.00 0.52 0.00 92 1016.1
20260509045334 72 355 0.0 0.0 0.00 0.52 0.00 92 1016.2
20260509044835 72 355 0.0 0.0 0.00 0.52 0.00 92 1016.3
20260509044335 73 360 0.0 0.0 0.00 0.52 0.00 92 1016.3
20260509043901 73 360 0.0 0.0 0.00 0.52 0.00 92 1016.3
20260509043341 73 360 0.0 0.0 0.00 0.52 0.00 92 1016.3
20260509042912 73 360 0.0 1.0 0.00 0.52 0.00 92 1016.4
20260509042349 73 360 0.0 1.0 0.00 0.52 0.00 92 1016.4
20260509041853 73 5 0.0 0.0 0.00 0.52 0.00 92 1016.3
20260509041401 73 5 0.0 1.0 0.00 0.52 0.00 92 1016.3
20260509040838 73 5 0.0 1.0 0.00 0.52 0.00 92 1016.3
20260509040342 73 5 0.0 1.0 0.00 0.52 0.00 92 1016.3
20260509035840 74 5 0.0 0.0 0.00 0.52 0.00 92 1016.2
20260509035338 74 5 0.0 1.0 0.00 0.52 0.52 92 1016.2
20260509034839 74 5 0.0 0.0 0.00 0.52 0.52 92 1016.3
20260509034340 74 5 0.0 0.0 0.00 0.52 0.52 92 1016.3
20260509033843 74 5 0.0 0.0 0.00 0.52 0.52 92 1016.3
20260509033325 74 5 0.0 0.0 0.00 0.52 0.52 92 1016.4
20260509032824 74 5 0.0 0.0 0.00 0.52 0.52 92 1016.5
20260509032325 74 5 0.0 0.0 0.00 0.52 0.52 92 1016.5
20260509031827 74 5 0.0 0.0 0.00 0.52 0.52 92 1016.5
20260509031354 74 5 0.0 0.0 0.00 0.52 0.52 92 1016.6
20260509030840 74 5 0.0 0.0 0.00 0.52 0.52 92 1016.5
20260509030344 74 5 0.0 0.0 0.00 0.52 0.52 92 1016.6
20260509025825 74 5 0.0 0.0 0.00 0.52 0.52 92 1016.6
20260509025355 74 5 0.0 0.0 0.00 0.52 0.52 92 1016.5
20260509024837 74 5 0.0 0.0 0.00 0.52 0.52 92 1016.6
20260509024341 74 5 0.0 0.0 0.00 0.52 0.52 92 1016.6
20260509023842 75 5 0.0 0.0 0.00 0.52 0.52 91 1016.6
20260509023343 75 5 0.0 1.0 0.00 0.52 0.52 91 1016.5
20260509022845 75 5 0.0 1.0 0.00 0.52 0.52 91 1016.5
20260509022345 75 5 0.0 1.0 0.00 0.52 0.52 91 1016.4
20260509021843 75 5 0.0 1.0 0.00 0.52 0.52 91 1016.4
20260509021324 75 5 0.0 0.0 0.00 0.52 0.52 91 1016.2
20260509020827 75 5 0.0 0.0 0.00 0.52 0.52 91 1016.1
20260509020331 75 5 0.0 0.0 0.00 0.52 0.52 91 1016.1
20260509015834 75 5 0.0 0.0 0.00 0.52 0.52 91 1016.0
20260509015333 75 14 0.0 0.0 0.00 0.52 0.52 91 1016.0
20260509014832 75 14 0.0 0.0 0.00 0.52 0.52 91 1016.0
20260509014343 75 5 0.0 1.0 0.00 0.52 0.52 91 1016.0
20260509013826 75 5 0.0 1.0 0.00 0.52 0.52 91 1015.9
20260509013356 76 5 0.0 1.0 0.00 0.52 0.52 91 1015.9
20260509012834 76 5 0.0 1.0 0.00 0.52 0.52 91 1015.7
20260509012336 76 24 0.0 2.0 0.01 0.52 0.52 90 1015.6
20260509011833 76 24 0.0 2.0 0.05 0.52 0.52 90 1015.6
20260509011335 76 5 0.0 4.0 0.32 0.52 0.52 90 1015.6
20260509010839 76 331 0.0 3.0 0.43 0.52 0.52 90 1015.5
20260509010409 76 57 0.0 10.0 0.49 0.52 0.52 89 1015.3
20260509005848 76 72 0.0 10.0 0.52 0.52 0.52 89 1015.3
20260509005358 77 43 0.0 4.0 0.52 0.52 0.52 88 1015.3
20260509004838 77 351 1.0 3.0 0.52 0.52 0.52 87 1014.9
20260509004332 78 344 1.0 5.0 0.52 0.52 0.52 87 1014.5
20260509003902 79 40 1.0 5.0 0.52 0.52 0.52 86 1014.4
20260509003346 79 28 0.0 3.0 0.52 0.52 0.52 85 1014.5
20260509002846 80 27 0.0 8.0 0.52 0.52 0.52 84 1014.6
20260509002329 80 355 1.0 12.0 0.51 0.51 0.51 80 1014.4
20260509001838 82 247 2.0 12.0 0.47 0.47 0.47 80 1015.0
20260509001338 85 273 3.0 8.0 0.20 0.20 0.20 75 1014.7
20260509000846 87 344 1.0 8.0 0.07 0.07 0.07 73 1014.1
20260509000348 88 130 2.0 9.0 0.03 0.03 0.03 67 1013.6
20260508235849 89 109 1.0 7.0 0.00 0.00 0.00 62 1013.3
20260508235349 90 119 3.0 7.0 0.00 0.00 0.00 61 1013.4
20260508234831 91 130 1.0 3.0 0.00 0.00 0.00 53 1013.2
20260508234333 91 203 0.0 3.0 0.00 0.00 0.00 52 1013.0
20260508233834 92 306 0.0 3.0 0.00 0.00 0.00 52 1013.1
20260508233333 92 319 0.0 1.0 0.00 0.00 0.00 52 1013.0
20260508232902 92 273 0.0 3.0 0.00 0.00 0.00 51 1013.0
20260508232342 92 247 1.0 4.0 0.00 0.00 0.00 51 1012.9
20260508231825 92 250 0.0 6.0 0.00 0.00 0.00 50 1012.9
20260508231353 92 277 1.0 6.0 0.00 0.00 0.00 49 1012.8
20260508230833 93 250 2.0 7.0 0.00 0.00 0.00 50 1012.7
20260508230333 93 258 2.0 7.0 0.00 0.00 0.00 49 1012.7
20260508225833 93 40 2.0 7.0 0.00 0.00 0.00 50 1012.6
20260508225404 93 219 1.0 6.0 0.00 0.00 0.00 50 1012.5
20260508224825 94 267 2.0 7.0 0.00 0.00 0.00 50 1012.6
20260508224326 94 246 4.0 7.0 0.00 0.00 0.00 50 1012.5
20260508223824 94 255 3.0 7.0 0.00 0.00 0.00 50 1012.4
20260508223329 94 258 1.0 6.0 0.00 0.00 0.00 50 1012.4
20260508222829 94 250 2.0 6.0 0.00 0.00 0.00 48 1012.5
20260508222331 94 246 3.0 8.0 0.00 0.00 0.00 48 1012.5
20260508221903 94 290 4.0 8.0 0.00 0.00 0.00 47 1012.3
20260508221343 94 254 1.0 10.0 0.00 0.00 0.00 49 1012.3
20260508220824 94 245 5.0 10.0 0.00 0.00 0.00 49 1012.3
20260508220327 95 310 2.0 6.0 0.00 0.00 0.00 48 1012.3
20260508215855 94 269 3.0 9.0 0.00 0.00 0.00 48 1012.3
20260508215403 94 279 2.0 9.0 0.00 0.00 0.00 48 1012.4
20260508214845 95 251 3.0 7.0 0.00 0.00 0.00 47 1012.5
20260508214343 95 248 2.0 9.0 0.00 0.00 0.00 48 1012.5
20260508213843 95 245 3.0 10.0 0.00 0.00 0.00 48 1012.5
20260508213345 95 263 3.0 9.0 0.00 0.00 0.00 47 1012.4
20260508212848 94 264 1.0 5.0 0.00 0.00 0.00 48 1012.4
20260508212350 94 253 2.0 9.0 0.00 0.00 0.00 47 1012.4
20260508211851 95 246 3.0 10.0 0.00 0.00 0.00 47 1012.5
20260508211402 95 262 0.0 7.0 0.00 0.00 0.00 47 1012.5
20260508210841 95 275 2.0 7.0 0.00 0.00 0.00 48 1012.6
20260508210342 95 269 1.0 9.0 0.00 0.00 0.00 47 1012.6
20260508205912 95 260 3.0 9.0 0.00 0.00 0.00 46 1012.7
20260508205351 95 168 3.0 7.0 0.00 0.00 0.00 46 1012.7
20260508204847 96 158 2.0 6.0 0.00 0.00 0.00 46 1012.7
20260508204348 96 215 0.0 6.0 0.00 0.00 0.00 47 1012.7
20260508203849 95 250 1.0 10.0 0.00 0.00 0.00 47 1012.8
20260508203328 95 213 2.0 11.0 0.00 0.00 0.00 47 1012.9
20260508202829 96 238 6.0 10.0 0.00 0.00 0.00 47 1013.0
20260508202331 96 315 1.0 7.0 0.00 0.00 0.00 48 1013.0
20260508201830 95 163 1.0 11.0 0.00 0.00 0.00 47 1013.1
20260508201329 96 163 4.0 10.0 0.00 0.00 0.00 45 1013.3
20260508200827 96 228 2.0 10.0 0.00 0.00 0.00 45 1013.3
20260508200327 96 242 3.0 9.0 0.00 0.00 0.00 46 1013.4
20260508195826 96 308 5.0 9.0 0.00 0.00 0.00 46 1013.5
20260508195325 97 252 2.0 6.0 0.00 0.00 0.00 46 1013.6
20260508194848 96 130 2.0 5.0 0.00 0.00 0.00 46 1013.5
20260508194349 96 239 2.0 7.0 0.00 0.00 0.00 46 1013.6
20260508193830 96 286 2.0 8.0 0.00 0.00 0.00 45 1013.6
20260508193330 95 198 2.0 7.0 0.00 0.00 0.00 45 1013.8
20260508192827 95 242 2.0 8.0 0.00 0.00 0.00 47 1013.8
20260508192327 95 243 3.0 8.0 0.00 0.00 0.00 46 1013.8
20260508191828 96 273 1.0 8.0 0.00 0.00 0.00 49 1013.9
20260508191326 95 298 2.0 12.0 0.00 0.00 0.00 49 1014.0
20260508190853 96 231 6.0 12.0 0.00 0.00 0.00 49 1014.1
20260508190355 95 232 2.0 5.0 0.00 0.00 0.00 50 1014.2
20260508185848 95 225 1.0 7.0 0.00 0.00 0.00 51 1014.3
20260508185327 95 257 1.0 7.0 0.00 0.00 0.00 51 1014.4
20260508184828 94 213 2.0 8.0 0.00 0.00 0.00 51 1014.6
20260508184331 95 251 4.0 8.0 0.00 0.00 0.00 52 1014.7
20260508183832 95 238 3.0 8.0 0.00 0.00 0.00 51 1014.7
20260508183359 95 49 1.0 4.0 0.00 0.00 0.00 52 1014.8
20260508182908 94 138 1.0 8.0 0.00 0.00 0.00 52 1014.9
20260508182345 94 206 2.0 8.0 0.00 0.00 0.00 53 1015.0
20260508181849 93 232 2.0 8.0 0.00 0.00 0.00 53 1015.1
20260508181348 94 126 1.0 8.0 0.00 0.00 0.00 52 1015.2
20260508180849 94 261 2.0 6.0 0.00 0.00 0.00 52 1015.3
20260508180345 94 309 1.0 8.0 0.00 0.00 0.00 55 1015.3
20260508175844 93 15 2.0 8.0 0.00 0.00 0.00 53 1015.5
20260508175338 93 263 1.0 8.0 0.00 0.00 0.00 54 1015.6
20260508174838 92 207 2.0 8.0 0.00 0.00 0.00 54 1015.6
20260508174339 91 250 3.0 6.0 0.00 0.00 0.00 57 1015.6
20260508173840 90 11 2.0 6.0 0.00 0.00 0.00 56 1015.7
20260508173341 90 280 1.0 8.0 0.00 0.00 0.00 56 1015.8
20260508172910 90 275 5.0 8.0 0.00 0.00 0.00 55 1015.8
20260508172329 91 284 1.0 8.0 0.00 0.00 0.00 56 1015.9
20260508171832 91 187 3.0 8.0 0.00 0.00 0.00 55 1016.0
20260508171335 91 301 4.0 10.0 0.00 0.00 0.00 55 1016.1
20260508170835 92 281 3.0 10.0 0.00 0.00 0.00 54 1016.1
20260508170331 92 252 4.0 10.0 0.00 0.00 0.00 54 1016.1